Regional Weather Roundup
Issued by NWS

Home | Current Version | Previous Version | Text Only | Print | Product List | Glossary Off
Versions: 1 2 3 4 5 6 7 8 9 10 11 12 13 14 15 16 17 18 19 20 21 22 23 24 25 26 27 28 29 30 31 32 33 34 35 36 37 38 39 40 41 42 43 44 45 46 47 48 49 50

332
ASUS43 KOAX 211402
RWRNE

WEATHER ROUNDUP FOR NEBRASKA
NATIONAL WEATHER SERVICE OMAHA NE
900 AM CDT THU SEP 21 2017

NOTES: SATELLITE DATA IS BEING USED TO AUGMENT CLOUD COVER ABOVE
       12000 FEET.
       "FAIR" INDICATES FEW OR NO CLOUDS BELOW 12,000 FEET WITH NO
       SIGNIFICANT WEATHER AND/OR OBSTRUCTIONS TO VISIBILITY.


NEZ001>004-019>022-054>056-211500-
NEBRASKA PANHANDLE

CITY           SKY/WX    TMP DP  RH WIND       PRES   REMARKS
SCOTTSBLUFF    SUNNY     51  41  68 E12       29.75S
ALLIANCE       SUNNY     53  46  77 SE14      29.75S
CHADRON        SUNNY     60  42  51 S15G23    29.69R
GORDON         FAIR      61  51  70 S13G18    29.74F
KIMBALL        CLOUDY    52  39  62 CALM      29.79R
SIDNEY         SUNNY     53  41  63 S10       29.77S
$$

NEZ057>060-069>072-079>082-211500-
SOUTHWEST NEBRASKA

CITY           SKY/WX    TMP DP  RH WIND       PRES   REMARKS
NORTH PLATTE   CLOUDY    54  50  86 E10       29.79S
IMPERIAL       SUNNY     52  45  77 SE9       29.77F
LEXINGTON      SUNNY     57  51  80 SE9       29.80S
MCCOOK         SUNNY     55  50  83 E8        29.78F
OGALLALA       SUNNY     54  49  82 E5        29.77S
$$

NEZ005>010-023>029-035>040-094-211500-
NORTH CENTRAL NEBRASKA

CITY           SKY/WX    TMP DP  RH WIND       PRES   REMARKS
VALENTINE      SUNNY     60  51  72 SE7       29.79S
AINSWORTH      SUNNY     60  52  75 SE15      29.78F
BROKEN BOW     SUNNY     56  50  80 SE7       29.80F
O`NEILL        MOSUNNY   62  55  77 SE16      29.82F
ORD            SUNNY     57  50  77 CALM      29.81S
THEDFORD       SUNNY     60  54  80 SE10      29.79F
$$

NEZ041-046>049-061>064-073>077-083>087-211500-
SOUTH CENTRAL NEBRASKA

CITY           SKY/WX    TMP DP  RH WIND       PRES   REMARKS
GRAND ISLAND   SUNNY     58  55  90 E7        29.82F
AURORA         CLOUDY    61  60  96 SE6       29.82S
HASTINGS       SUNNY     64  58  80 SE9       29.83R
HEBRON         SUNNY     73  69  88 S8        29.82S
HOLDREGE       SUNNY     59  55  86 SE6       29.80F
KEARNEY        SUNNY     58  53  84 E5        29.81F
YORK           SUNNY     66  63  88 SE9       29.83S
$$

NEZ011>018-030>034-042>045-211500-
NORTHEAST NEBRASKA

CITY           SKY/WX    TMP DP  RH WIND       PRES   REMARKS
NORFOLK        SUNNY     61  57  87 SE9       29.83S
ALBION         MOSUNNY   61  57  86 SE6       29.83F
BLAIR          MOSUNNY   71  64  80 E10G17    29.86F
COLUMBUS       MOSUNNY   63  58  83 E9        29.84S
FREMONT        MOSUNNY   68  61  79 E7        29.85S
TEKAMAH        PTSUNNY   66  61  84 SE3       29.85S
WAYNE          PTSUNNY   62  60  91 SE13G18   29.84F
$$

NEZ050>053-065>068-078-088>093-211500-
SOUTHEAST NEBRASKA

CITY           SKY/WX    TMP DP  RH WIND       PRES   REMARKS
LINCOLN        MOSUNNY   71  64  78 SE6       29.84S
OMAHA EPPLEY   MOSUNNY   72  64  76 SE12      29.86S
BEATRICE       SUNNY     76  71  85 S9        29.83S
FALLS CITY     PTSUNNY   78  72  81 SE15      29.86R
NEBRASKA CITY  SUNNY     73  73  99 SE9       29.86F
PLATTSMOUTH    MOSUNNY   71  67  86 E9        29.86S
$$

NEZ044-045-051>053-067-211500-
OMAHA AREA

CITY           SKY/WX    TMP DP  RH WIND       PRES   REMARKS
OMAHA EPPLEY   MOSUNNY   72  64  76 SE12      29.86S
BLAIR          MOSUNNY   71  64  80 E10G17    29.86F
FREMONT        MOSUNNY   68  61  79 E7        29.85S
MILLARD        MOSUNNY   73  66  80 SE8       29.85F
OFFUTT AFB     SUNNY     71  65  80 E9        29.86R
PLATTSMOUTH    MOSUNNY   71  67  86 E9        29.86S
WAHOO          FAIR      69  65  86 SE10      29.84S
$$




USA.gov is the U.S. government's official web portal to all federal, state and local government web resources and services.